Tiempo cada hora Barskoon

Hoy, 1 Marzo, Lunes

Tiempo Temperatura Precipitaciones Viento Presión Humedad
00:00 -9°C° 0 mm 4 mps 587 mmHg 36%
01:00 -10°C° 0 mm 4 mps 587 mmHg 35%
02:00 -10°C° 0 mm 4 mps 587 mmHg 33%
03:00 -9°C° 0 mm 3 mps 587 mmHg 31%
04:00 -9°C° 0 mm 3 mps 587 mmHg 29%
05:00 -9°C° 0 mm 3 mps 587 mmHg 27%
06:00 -8°C° 0 mm 3 mps 587 mmHg 32%
07:00 -7°C° 0 mm 3 mps 587 mmHg 36%
08:00 -6°C° 0 mm 3 mps 588 mmHg 41%
09:00 -4°C° 0 mm 3 mps 587 mmHg 43%
10:00 -1°C° 0 mm 3 mps 587 mmHg 46%
11:00 +1°C° 0 mm 2 mps 586 mmHg 48%
12:00 +2°C° 0 mm 2 mps 586 mmHg 49%
13:00 +2°C° 0 mm 2 mps 586 mmHg 50%
14:00 +2°C° 0 mm 2 mps 585 mmHg 51%
15:00 +1°C° 0 mm 2 mps 585 mmHg 52%
16:00 -1°C° 0 mm 2 mps 586 mmHg 53%
17:00 -3°C° 0 mm 2 mps 586 mmHg 54%
18:00 -5°C° 0 mm 3 mps 586 mmHg 48%
19:00 -5°C° 0 mm 3 mps 587 mmHg 42%
20:00 -6°C° 0 mm 3 mps 587 mmHg 37%
21:00 -7°C° 0 mm 4 mps 587 mmHg 37%
22:00 -8°C° 0 mm 4 mps 587 mmHg 37%
23:00 -8°C° 0 mm 4 mps 587 mmHg 36%

Mañana, 2 Marzo, Martes

Tiempo Temperatura Precipitaciones Viento Presión Humedad
00:00 -8°C° 0 mm 4 mps 587 mmHg 36%
01:00 -8°C° 0 mm 4 mps 587 mmHg 35%
02:00 -8°C° 0 mm 4 mps 587 mmHg 34%
03:00 -8°C° 0 mm 4 mps 587 mmHg 33%
04:00 -7°C° 0 mm 3 mps 587 mmHg 31%
05:00 -7°C° 0 mm 3 mps 587 mmHg 30%
06:00 -6°C° 0 mm 3 mps 587 mmHg 34%
07:00 -5°C° 0 mm 3 mps 587 mmHg 38%
08:00 -5°C° 0 mm 3 mps 587 mmHg 42%
09:00 -2°C° 0 mm 3 mps 587 mmHg 43%
10:00 0°C° 0 mm 3 mps 587 mmHg 45%
11:00 +3°C° 0 mm 2 mps 587 mmHg 46%
12:00 +3°C° 0 mm 2 mps 586 mmHg 47%
13:00 +3°C° 0 mm 2 mps 586 mmHg 49%
14:00 +3°C° 0 mm 2 mps 585 mmHg 50%
15:00 +2°C° 0 mm 2 mps 585 mmHg 52%
16:00 +1°C° 0 mm 2 mps 585 mmHg 54%
17:00 -1°C° 0 mm 2 mps 585 mmHg 57%
18:00 -2°C° 0 mm 2 mps 586 mmHg 54%
19:00 -3°C° 0 mm 2 mps 586 mmHg 51%
20:00 -3°C° 0 mm 2 mps 586 mmHg 49%
21:00 -5°C° 0 mm 3 mps 586 mmHg 50%
22:00 -5°C° 0 mm 3 mps 586 mmHg 51%
23:00 -5°C° 0 mm 3 mps 586 mmHg 53%

Pasado mañana, 3 Marzo, Miércoles

Tiempo Temperatura Precipitaciones Viento Presión Humedad
00:00 -5°C° 0 mm 3 mps 586 mmHg 55%
01:00 -4°C° 0 mm 2 mps 586 mmHg 58%
02:00 -4°C° 0 mm 2 mps 586 mmHg 60%
03:00 -4°C° 0 mm 2 mps 586 mmHg 64%
04:00 -6°C° 0 mm 3 mps 586 mmHg 67%
05:00 -6°C° 0 mm 3 mps 586 mmHg 70%
06:00 -6°C° 0 mm 3 mps 586 mmHg 71%
07:00 -5°C° 0 mm 3 mps 586 mmHg 72%
08:00 -5°C° 0 mm 3 mps 587 mmHg 72%
09:00 -4°C° 0 mm 3 mps 586 mmHg 70%
10:00 -1°C° 0 mm 2 mps 585 mmHg 68%
11:00 +1°C° 0 mm 2 mps 585 mmHg 66%
12:00 +1°C° 0 mm 2 mps 585 mmHg 66%
13:00 +1°C° 0 mm 2 mps 584 mmHg 67%
14:00 +3°C° 0 mm 1 mps 584 mmHg 67%
15:00 +2°C° 0 mm 1 mps 584 mmHg 71%
16:00 +1°C° 0 mm 1 mps 584 mmHg 75%
17:00 0°C° 0 mm 1 mps 585 mmHg 79%
18:00 -3°C° 0 mm 2 mps 585 mmHg 75%
19:00 -4°C° 0 mm 2 mps 586 mmHg 71%
20:00 -5°C° 0 mm 3 mps 586 mmHg 66%
21:00 -6°C° 0 mm 3 mps 586 mmHg 68%
22:00 -7°C° 0 mm 4 mps 586 mmHg 69%
23:00 -8°C° 0 mm 4 mps 586 mmHg 70%

4 Marzo, Jueves

Tiempo Temperatura Precipitaciones Viento Presión Humedad
00:00 -8°C° 0 mm 4 mps 586 mmHg 71%
01:00 -8°C° 0 mm 4 mps 585 mmHg 71%
02:00 -8°C° 0 mm 4 mps 585 mmHg 72%
03:00 -8°C° 0 mm 4 mps 585 mmHg 71%
04:00 -7°C° 0 mm 3 mps 586 mmHg 69%
05:00 -6°C° 0 mm 3 mps 586 mmHg 68%
06:00 -6°C° 0 mm 3 mps 586 mmHg 69%
07:00 -5°C° 0 mm 3 mps 586 mmHg 71%
08:00 -5°C° 0 mm 3 mps 586 mmHg 72%
09:00 -4°C° 0 mm 3 mps 586 mmHg 68%
10:00 -1°C° 0 mm 3 mps 585 mmHg 64%
11:00 +1°C° 0 mm 3 mps 585 mmHg 60%
12:00 +1°C° 0 mm 3 mps 585 mmHg 60%
13:00 +2°C° 0 mm 2 mps 585 mmHg 60%
14:00 +2°C° 0 mm 2 mps 584 mmHg 60%
15:00 +2°C° 0 mm 2 mps 585 mmHg 64%
16:00 +1°C° 0 mm 2 mps 585 mmHg 68%
17:00 -1°C° 0 mm 2 mps 585 mmHg 72%
18:00 -1°C° 0 mm 3 mps 586 mmHg 70%
19:00 -2°C° 0 mm 3 mps 587 mmHg 69%
20:00 -4°C° 0 mm 4 mps 587 mmHg 67%
21:00 -4°C° 0 mm 4 mps 587 mmHg 69%
22:00 -4°C° 0 mm 4 mps 587 mmHg 70%
23:00 -5°C° 0 mm 4 mps 587 mmHg 72%

5 Marzo, Viernes

Tiempo Temperatura Precipitaciones Viento Presión Humedad
00:00 -5°C° 0 mm 4 mps 586 mmHg 72%
01:00 -5°C° 0 mm 4 mps 586 mmHg 71%
02:00 -7°C° 0 mm 4 mps 586 mmHg 71%
03:00 -7°C° 0 mm 4 mps 586 mmHg 71%
04:00 -7°C° 0 mm 4 mps 586 mmHg 72%
05:00 -6°C° 0 mm 3 mps 587 mmHg 72%
06:00 -5°C° 0 mm 4 mps 587 mmHg 72%
07:00 -4°C° 0 mm 4 mps 588 mmHg 72%
08:00 -4°C° 0 mm 4 mps 588 mmHg 72%
09:00 -4°C° 0 mm 5 mps 588 mmHg 72%
10:00 -3°C° 0 mm 6 mps 588 mmHg 72%
11:00 -2°C° 0 mm 6 mps 588 mmHg 73%
12:00 -2°C° 0.1 mm 6 mps 588 mmHg 73%
13:00 -2°C° 0.1 mm 6 mps 588 mmHg 74%
14:00 -2°C° 0.1 mm 5 mps 588 mmHg 74%
15:00 -3°C° 0.1 mm 4 mps 588 mmHg 81%
16:00 -4°C° 0.1 mm 3 mps 588 mmHg 88%
17:00 -5°C° 0.1 mm 2 mps 589 mmHg 95%
18:00 -6°C° 0 mm 2 mps 589 mmHg 89%
19:00 -7°C° 0 mm 3 mps 589 mmHg 82%
20:00 -8°C° 0 mm 3 mps 590 mmHg 76%
21:00 -9°C° 0 mm 3 mps 590 mmHg 69%
22:00 -9°C° 0 mm 3 mps 590 mmHg 63%
23:00 -9°C° 0 mm 3 mps 590 mmHg 56%

6 Marzo, Sábado

Tiempo Temperatura Precipitaciones Viento Presión Humedad
00:00 -10°C° 0 mm 3 mps 589 mmHg 53%
01:00 -10°C° 0 mm 3 mps 589 mmHg 50%
02:00 -10°C° 0 mm 3 mps 589 mmHg 46%
03:00 -10°C° 0 mm 3 mps 588 mmHg 44%
04:00 -10°C° 0 mm 3 mps 588 mmHg 42%
05:00 -10°C° 0 mm 3 mps 588 mmHg 40%
06:00 -9°C° 0 mm 3 mps 588 mmHg 41%
07:00 -9°C° 0 mm 3 mps 588 mmHg 41%
08:00 -8°C° 0 mm 3 mps 588 mmHg 42%
09:00 -6°C° 0 mm 3 mps 587 mmHg 44%
10:00 -4°C° 0 mm 3 mps 586 mmHg 47%
11:00 -1°C° 0 mm 2 mps 585 mmHg 49%
12:00 +1°C° 0 mm 2 mps 585 mmHg 51%
13:00 +1°C° 0 mm 2 mps 584 mmHg 53%
14:00 +2°C° 0 mm 2 mps 583 mmHg 55%
15:00 +1°C° 0 mm 2 mps 583 mmHg 57%
16:00 -1°C° 0 mm 2 mps 583 mmHg 58%
17:00 -2°C° 0 mm 2 mps 583 mmHg 59%
18:00 -4°C° 0 mm 3 mps 583 mmHg 55%
19:00 -4°C° 0 mm 3 mps 584 mmHg 51%
20:00 -5°C° 0 mm 3 mps 584 mmHg 48%
21:00 -5°C° 0 mm 3 mps 584 mmHg 48%
22:00 -5°C° 0 mm 3 mps 584 mmHg 47%
23:00 -4°C° 0 mm 3 mps 584 mmHg 47%
Mostrar más

Necesitamos Su Consentimiento

Meteoprog y nuestros Proveedores de Servicios pueden almacenar y acceder a sus datos personales como cookies, identificadores de dispositivo u otras tecnologías similares de su dispositivo y procesar dichos datos para personalizar contenido y anuncios, además de ofrecer funciones de redes sociales y analizar el tráfico.

  • Almacenar y/o acceder a información en su dispositivo

    Se puede almacenar o acceder a cookies, identificadores de dispositivo u otra información de su dispositivo para los fines anteriormente indicados.

  • Anuncios y contenido personalizados, medición de anuncios y contenido, percepciones del público, y desarrollo de productos

    Los anuncios y el contenido pueden personalizarse en base a su perfil. Se pueden añadir más datos para personalizar mejor los anuncios y contenidos. Se puede medir el rendimiento de los anuncios y contenidos. Se puede obtener la percepción sobre el público que ha visto los anuncios y contenidos. Dichos datos pueden usarse para desarrollar o mejorar la experiencia del usuario, sistemas y software.

Al hacer clic en ‘Estoy De Acuerdo’ usted permitirá el uso de las cookies, identificadores de dispositivo, balizas web u otras tecnologías similares indicadas. Su configuración puede cambiarse desde el navegador de su dispositivo.

Para ciertos fines, los intereses legítimos pueden ser considerados por encima del consentimiento. Puede leer más sobre ello en nuestra Política de Privacidad y Cookies.